Location: Alexandria
(38.8050°N, 77.0470°W)
Time: 20:31:23
(UTC-04:00)

Envisat - Pass Details

Date: 14 March 2018
Orbit: 764 x 766 km, 98.2° (Epoch: 17 June)

Event Time Altitude Azimuth Distance (km) Brightness Sun altitude
Rises 21:53:12 0° 210° (SSW) 3,215 6.3 -30.9°
Reaches altitude 10° 21:56:26 10° 232° (SW) 2,295 5.7 -31.5°
Maximum altitude 21:59:25 16° 268° (W) 1,935 5.7 -32.0°
Drops below altitude 10° 22:02:25 10° 305° (NW) 2,305 6.3 -32.5°
Sets 22:05:42 0° 327° (NNW) 3,237 7.0 -33.1°
